{"data":{"norad_id":37185,"intl_designator":"2010-053A","name":"XM-5","alt_names":[],"object_type":"PAYLOAD","status":"ACTIVE","operator":null,"country":"US","launch_date":"2010-10-14","launch_site_code":"TYMSC","launch_vehicle":null,"mission":null,"orbit_class":"UNKNOWN","rcs_meters":12.6191,"size_class":null,"mass_kg":null,"dimensions":null,"purposes":["comms"],"wikipedia_slug":null,"has_3d_model":false,"image_url":null,"decayed_at":null,"tle_current":{"epoch":"2026-05-25T03:42:38.615040Z","epoch_age_seconds":61655,"freshness":"FRESH","line1":"1 37185U 10053A   26145.15461360 -.00000025  00000+0  00000+0 0  9993","line2":"2 37185   0.0628 273.7257 0003347 278.8755 350.6118  1.00271049 57251","mean_motion":1.00271049,"eccentricity":0.0003347,"inclination_deg":0.0628,"raan_deg":273.7257,"arg_perigee_deg":278.8755,"mean_anomaly_deg":350.6118,"bstar":0,"rev_number":5725,"period_min":1436.107445131,"perigee_km":35772.688685125,"apogee_km":35800.913894816,"semimajor_km":42164.93828997,"source":"CELESTRAK","updated_at":"2026-05-25T13:38:14.329820Z"}}}